Regional Weather Roundup
Issued by NWS San Diego, CA

Home | Current Version | Previous Version | Text Only | Print | Product List | Glossary On
Versions: 1 2 3 4 5 6 7 8 9 10 11 12 13 14 15 16 17 18 19 20 21 22 23 24 25 26 27 28 29 30 31 32 33 34 35 36 37 38 39 40 41 42 43 44 45 46 47 48 49 50
000
ASUS46 KSGX 250210
RWRSGX

SAN DIEGO HOURLY WEATHER ROUNDUP
NATIONAL WEATHER SERVICE SAN DIEGO CA
600 PM PST WED DEC 24 2014

NOTE: "FAIR" INDICATES FEW OR NO CLOUDS BELOW 12,000 FEET WITH NO
SIGNIFICANT WEATHER AND/OR OBSTRUCTIONS TO VISIBILITY.

CAZ042-043-060-061-PZZ750-775-250300-

GREATER SAN DIEGO AREA

CITY           SKY/WX    TMP DP  RH WIND       PRES   REMARKS
LINDBERGH FLD  PTCLDY    65  52  62 S6        29.93F
POINT LOMA       N/A     61  53  76 S10         N/A
NATIONAL CITY    N/A     63  51  64 CALM      29.93F
CHULA VISTA      N/A     61  51  70 CALM      29.86F
IMPERIAL BEACH MOCLDY    58  48  69 E6        29.93F
BROWN FIELD    MOCLDY    61  40  45 E3        29.93F
MIRAMAR MCAS   PTCLDY    59  35  40 SE5       29.92F
MONTGOMERY FLD PTCLDY    62  40  44 SE3       29.93S

$$

NORTH SAN DIEGO COUNTY

CITY           SKY/WX    TMP DP  RH WIND       PRES   REMARKS
CAMP PENDLETON PTCLDY    60  51  72 CALM      29.90F
OCEANSIDE AP   PTCLDY    56  47  71 CALM      29.90F
OCEANSIDE HBR    N/A     63  55  76 SW2       29.92F
VISTA            N/A     61  45  56 CALM      29.90F
CARLSBAD       PTCLDY    63  44  50 SE3       29.91F
DEL MAR          N/A     61  41  47 CALM      29.94F
LA JOLLA SCRIP   N/A     63  42  46 CALM      29.90F
FALLBROOK        N/A     62  47  57 CALM      29.93F
ESCONDIDO        N/A     64  41  43 CALM      29.93F
SAN MARCOS       N/A     64  41  41 CALM      29.90F
POWAY            N/A     58  43  56 CALM      29.95S

$$

EAST SAN DIEGO COUNTY

CITY           SKY/WX    TMP DP  RH WIND       PRES   REMARKS
RAMONA         PTCLDY    54  39  57 CALM      29.94S
SANTEE LAKES     N/A     60  41  49 CALM      29.94F
LA MESA          N/A     62  42  47 CALM      29.87F
JAMUL            N/A     58  38  47 CALM      29.93F
DESCANSO N       N/A     49  35  59 CALM      29.83F
MT. LAGUNA OBS   N/A     43  28  56 NW17      29.61S
CAMPO            N/A     54  31  41 SW8       29.94F

$$

ORANGE COUNTY AND THE LOS ANGELES BASIN

CITY           SKY/WX    TMP DP  RH WIND       PRES   REMARKS
JOHN WAYNE AP  CLOUDY    67  45  45 SW3       29.90F
LAGUNA BEACH     N/A     60  50  70 NW1       29.87S
LAKE FOREST FR   N/A     62  38  42 CALM      29.81F
SANTA ANA        N/A     64  49  58 CALM      29.86S
HUNTINGTON BCH   N/A     63  55  77 CALM      29.93S
LOS ALAMITOS   CLEAR     62  48  60 SW5       29.91R
FULLERTON      CLOUDY    66  41  40 CALM      29.90R
LONG BEACH     CLOUDY    65  51  60 SW3       29.91R
L.A. AP        CLOUDY    63  55  75 SW8       29.90F
L.A. DOWNTOWN  CLOUDY    65  46  50 VRB3      29.90S

$$

THE INLAND EMPIRE

CITY           SKY/WX    TMP DP  RH WIND       PRES   REMARKS
CORONA         CLOUDY    61  42  49 CALM      29.90S
CHINO          CLOUDY    60  44  55 CALM      29.91S
ONTARIO        CLOUDY    65  39  38 SW6       29.90S
SAN BERNARDINO MOCLDY    63  36  36 CALM      29.92S
RIVERSIDE AP   CLOUDY    66  39  37 W3        29.90F
RIV CYN CREST    N/A     65  48  55 CALM        N/A
MORENO VALLEY    N/A     61  44  53 CALM      29.12S
MARCH ARB      MOCLDY    54  44  69 NW1       29.92S
HORSETHIEF CYN   N/A     62  33  33 SE3       29.91F
PERRIS           N/A     63  41  44 CALM      29.92F
MENIFEE          N/A     63  47  57 CALM      29.97F
HEMET EAST       N/A     59  39  47 CALM      29.93F
FRENCH VALLEY  FAIR      61  43  51 CALM      29.93S
TEMECULA         N/A     64  44  48 CALM      29.87F

$$

SAN BERNARDINO AND RIVERSIDE COUNTY MOUNTAINS

CITY           SKY/WX    TMP DP  RH WIND       PRES   REMARKS
BIG BEAR AP    MOCLDY    39  27  60 W12G17    30.00F WCI  32
PINE COVE        N/A     43  31  62 NW5       29.89F

$$

SOUTHERN DESERT INCLUDING THE COACHELLA VALLEY

CITY           SKY/WX    TMP DP  RH WIND       PRES   REMARKS
PALM SPRINGS   MOCLDY    61  23  23 E5        29.90F
THOUSAND PALMS   N/A     60  23  24 E2        29.85F
PALM DESERT      N/A     59  29  31 CALM      26.22S
THERMAL        MOCLDY    51  25  36 SW3       29.87F
BLYTHE         CLOUDY    59  27  29 SE6       29.87F
IMPERIAL AP    CLOUDY    62  27  26 S6        29.89F
EL CENTRO NAS  CLOUDY    59  29  31 SE7       29.88F
YUMA AZ        CLOUDY    60  19  20 CALM      29.90F
MEXICALI       MOCLDY    57  37  47 SE3       29.91

$$

UPPER DESERT

CITY           SKY/WX    TMP DP  RH WIND       PRES   REMARKS
VICTORVILLE AP CLOUDY    57  30  35 SW12      29.84F
HESPERIA         N/A     57  34  43 W3        30.00F
PALMDALE       CLOUDY    61  34  36 SW24G30   29.86F
LANCASTER      CLOUDY    57  37  47 SW21      29.87F
EDWARDS AFB    MOCLDY    56  40  55 SW14      29.82F
DAGGETT        MOCLDY    52  27  38 N8        29.80F
29 PALMS N     MOCLDY    54  14  20 S9        29.91F
NEEDLES        CLOUDY    56  21  25 W5        29.88R

$$

REGIONAL REPORTS

CITY           SKY/WX    TMP DP  RH WIND       PRES   REMARKS
SANTA BARBARA  MOCLDY    63  52  67 E3        29.88S
SANDBERG       CLOUDY    50  35  56 SW14      29.95F
MT. WILSON       N/A     46  28  49 MISG        N/A
LAS VEGAS NV   MOCLDY    48  20  32 S6        29.76F
PHOENIX AZ     CLOUDY    58  20  22 E3        29.92F
TIJUANA        PTCLDY    63  34  34 CALM      29.96F
ENSENADA NW      N/A     63  32  31 CALM      29.93S

$$

OFFSHORE ISLANDS

CITY           SKY/WX    TMP DP  RH WIND       PRES   REMARKS
CATALINA ARPT  CLOUDY    56  54  93 SW14      29.93F FOG
SAN NICOLAS IS CLOUDY   N/A N/A N/A W10       29.91S

$$

MARINE AND OFFSHORE BUOY REPORTS

STATION/POSITION SKY/WX   TEMP    WIND        PRES    SWELL
                          AIR SEA DIR/SP/G            HT/PER/DIR
                          (F)     (DEG/KT/KT) (MB)    (FT/S/D)
TANNER BANKS               62 64  320/ 16/ 19 1013.8F   8/310/17
S CLEMENTE BASIN           65 66  240/  8/ 10 1013.1F   7/280/16
SAN NICOLAS IS.               62                N/A     7/290/17
SO. S. ROSA ISLA           61 62  320/ 25/ 29 1012.9F   8/16
W. S. BARBARA CH           61 60  330/ 21/ 27 1013.0F   7/300/17
S. MONICA BASIN            62 63  310/  2/  4 1012.8F   5/240/16
S PEDRO CHANNEL               65                N/A     3/260/13
DANA POINT                    64                N/A     3/280/15
CMP PENDLETON NS              64                N/A     2/230/15
OCEANSIDE OFFSHR              65                N/A     2/260/17
TORREY PINES OTR              65                N/A     3/260/14
LA JOLLA 1                 65 64  160/  2/  3 1013.3S
MISSION BAY BUOY              65                N/A     3/270/15
SAN DIEGO BAY                 65              1013.9F
POINT LOMA SOUTH              65                N/A     5/270/17

$$



USA.gov is the U.S. government's official web portal to all federal, state and local government web resources and services.